Time,TemperatureF,DewpointF,PressureIn,WindDirection,WindDirectionDegrees,WindSpeedMPH,WindSpeedGustMPH,Humidity,HourlyPrecipIn,Conditions,Clouds,dailyrainin,SoftwareType,DateUTC
2013-04-06 00:04:00,52.9,47.6,30.18,WNW,299,2.0,5.0,82,0.00,,---,0.00,VWS V14.01,2013-04-06 07:04:00,
2013-04-06 00:09:00,52.9,47.9,30.18,SW,219,3.0,8.0,83,0.00,,---,0.00,VWS V14.01,2013-04-06 07:09:00,
2013-04-06 00:14:00,52.9,47.9,30.16,SW,230,5.0,8.0,83,0.00,,---,0.00,VWS V14.01,2013-04-06 07:14:00,
2013-04-06 00:19:00,52.9,47.9,30.19,SW,224,3.0,8.0,83,0.00,,---,0.00,VWS V14.01,2013-04-06 07:19:00,
2013-04-06 00:25:00,52.8,48.4,30.18,SW,234,1.0,8.0,85,0.00,,---,0.00,VWS V14.01,2013-04-06 07:25:00,
2013-04-06 00:30:00,52.9,48.2,30.18,SW,234,1.0,2.0,84,0.00,,---,0.00,VWS V14.01,2013-04-06 07:30:00,
2013-04-06 00:35:00,52.9,48.5,30.17,SW,235,1.0,3.0,85,0.00,,---,0.00,VWS V14.01,2013-04-06 07:35:00,
2013-04-06 00:40:00,52.9,48.5,30.17,SW,235,0.0,3.0,85,0.00,,---,0.00,VWS V14.01,2013-04-06 07:40:00,
2013-04-06 00:45:00,53.0,48.6,30.17,SW,235,1.0,4.0,85,0.00,,---,0.00,VWS V14.01,2013-04-06 07:45:00,
2013-04-06 00:50:00,53.0,48.6,30.18,SW,235,0.0,4.0,85,0.00,,---,0.00,VWS V14.01,2013-04-06 07:50:00,
2013-04-06 00:55:00,53.0,48.6,30.16,SW,235,0.0,4.0,85,0.00,,---,0.00,VWS V14.01,2013-04-06 07:55:00,
2013-04-06 01:00:00,53.0,48.6,30.17,SW,235,0.0,3.0,85,0.00,,---,0.00,VWS V14.01,2013-04-06 08:00:00,
2013-04-06 01:05:00,53.1,48.7,30.17,SW,235,3.0,4.0,85,0.00,,---,0.00,VWS V14.01,2013-04-06 08:05:00,
2013-04-06 01:10:00,53.0,48.6,30.16,SW,235,2.0,4.0,85,0.00,,---,0.00,VWS V14.01,2013-04-06 08:10:00,
2013-04-06 01:15:00,53.1,48.7,30.18,SW,235,6.0,6.0,85,0.00,,---,0.00,VWS V14.01,2013-04-06 08:15:00,
2013-04-06 01:21:00,53.0,48.6,30.16,SW,235,3.0,6.0,85,0.00,,---,0.00,VWS V14.01,2013-04-06 08:21:00,
2013-04-06 01:26:00,53.0,48.6,30.17,SW,227,6.0,8.0,85,0.00,,---,0.00,VWS V14.01,2013-04-06 08:26:00,
2013-04-06 01:31:00,53.0,48.6,30.18,SW,219,3.0,5.0,85,0.00,,---,0.00,VWS V14.01,2013-04-06 08:31:00,
2013-04-06 01:36:00,53.1,48.7,30.16,SW,222,3.0,7.0,85,0.00,,---,0.00,VWS V14.01,2013-04-06 08:36:00,
2013-04-06 01:41:00,53.0,48.6,30.17,SW,222,0.0,7.0,85,0.00,,---,0.00,VWS V14.01,2013-04-06 08:41:00,
2013-04-06 01:46:00,53.2,48.8,30.17,SW,222,1.0,7.0,85,0.00,,---,0.00,VWS V14.01,2013-04-06 08:46:00,
2013-04-06 01:51:00,53.2,48.8,30.18,SW,222,1.0,7.0,85,0.00,,---,0.00,VWS V14.01,2013-04-06 08:51:00,
2013-04-06 01:56:00,53.2,48.8,30.17,SW,222,1.0,7.0,85,0.00,,---,0.00,VWS V14.01,2013-04-06 08:56:00,
2013-04-06 02:02:00,53.0,48.6,30.17,SW,222,1.0,3.0,85,0.00,,---,0.00,VWS V14.01,2013-04-06 09:02:00,
2013-04-06 02:07:00,53.0,48.9,30.18,SW,222,2.0,3.0,86,0.00,,---,0.00,VWS V14.01,2013-04-06 09:07:00,
2013-04-06 02:12:00,53.0,48.6,30.16,SW,222,2.0,5.0,85,0.00,,---,0.00,VWS V14.01,2013-04-06 09:12:00,
2013-04-06 02:17:00,53.1,49.0,30.16,SW,222,2.0,5.0,86,0.00,,---,0.00,VWS V14.01,2013-04-06 09:17:00,
2013-04-06 02:22:00,53.2,49.1,30.18,SW,222,1.0,5.0,86,0.00,,---,0.00,VWS V14.01,2013-04-06 09:22:00,
2013-04-06 02:27:00,53.1,49.0,30.16,SW,222,2.0,5.0,86,0.00,,---,0.00,VWS V14.01,2013-04-06 09:27:00,
2013-04-06 02:32:00,53.3,49.2,30.15,SW,223,1.0,5.0,86,0.00,,---,0.00,VWS V14.01,2013-04-06 09:32:00,
2013-04-06 02:37:00,53.3,48.9,30.17,SW,223,3.0,5.0,85,0.00,,---,0.00,VWS V14.01,2013-04-06 09:37:00,
2013-04-06 02:42:00,53.3,49.2,30.16,SW,222,2.0,6.0,86,0.00,,---,0.00,VWS V14.01,2013-04-06 09:42:00,
2013-04-06 02:47:00,53.3,49.2,30.16,SW,222,1.0,6.0,86,0.00,,---,0.00,VWS V14.01,2013-04-06 09:47:00,
2013-04-06 02:52:00,53.3,49.2,30.18,SW,222,3.0,7.0,86,0.00,,---,0.00,VWS V14.01,2013-04-06 09:52:00,
2013-04-06 02:57:00,53.3,49.2,30.15,SW,222,2.0,7.0,86,0.00,,---,0.00,VWS V14.01,2013-04-06 09:57:00,
2013-04-06 03:03:00,53.3,49.2,30.15,SW,222,3.0,4.0,86,0.00,,---,0.00,VWS V14.01,2013-04-06 10:03:00,
2013-04-06 03:08:00,53.3,49.5,30.16,SW,222,1.0,4.0,87,0.00,,---,0.00,VWS V14.01,2013-04-06 10:08:00,
2013-04-06 03:13:00,53.3,49.2,30.14,SW,222,0.0,4.0,86,0.00,,---,0.00,VWS V14.01,2013-04-06 10:13:00,
2013-04-06 03:18:00,53.4,49.6,30.16,SW,222,1.0,4.0,87,0.00,,---,0.00,VWS V14.01,2013-04-06 10:18:00,
2013-04-06 03:23:00,53.2,49.1,30.17,SW,222,0.0,5.0,86,0.00,,---,0.00,VWS V14.01,2013-04-06 10:23:00,
2013-04-06 03:28:00,53.2,49.1,30.13,SW,222,2.0,5.0,86,0.00,,---,0.00,VWS V14.01,2013-04-06 10:28:00,
2013-04-06 03:33:00,53.2,49.1,30.14,SW,222,0.0,4.0,86,0.00,,---,0.00,VWS V14.01,2013-04-06 10:33:00,
2013-04-06 03:38:00,53.2,49.1,30.16,SW,222,0.0,4.0,86,0.00,,---,0.00,VWS V14.01,2013-04-06 10:38:00,
2013-04-06 03:43:00,53.2,49.1,30.16,SW,222,0.0,4.0,86,0.00,,---,0.00,VWS V14.01,2013-04-06 10:43:00,
2013-04-06 03:48:00,53.2,49.4,30.14,SW,222,1.0,4.0,87,0.00,,---,0.00,VWS V14.01,2013-04-06 10:48:00,
2013-04-06 03:53:00,53.2,49.4,30.16,SW,222,1.0,4.0,87,0.00,,---,0.00,VWS V14.01,2013-04-06 10:53:00,
2013-04-06 03:59:00,53.2,49.1,30.15,SW,222,1.0,4.0,86,0.00,,---,0.00,VWS V14.01,2013-04-06 10:59:00,
2013-04-06 04:04:00,53.2,49.4,30.16,SW,222,0.0,2.0,87,0.00,,---,0.00,VWS V14.01,2013-04-06 11:04:00,
2013-04-06 04:09:00,53.2,49.1,30.16,SW,222,0.0,2.0,86,0.00,,---,0.00,VWS V14.01,2013-04-06 11:09:00,
2013-04-06 04:14:00,53.2,49.1,30.16,SW,222,0.0,2.0,86,0.00,,---,0.00,VWS V14.01,2013-04-06 11:14:00,
2013-04-06 04:19:00,53.2,49.1,30.16,SW,222,1.0,2.0,86,0.00,,---,0.00,VWS V14.01,2013-04-06 11:19:00,
2013-04-06 04:24:00,53.2,49.1,30.13,SW,222,0.0,2.0,86,0.00,,---,0.00,VWS V14.01,2013-04-06 11:24:00,
2013-04-06 04:29:00,53.0,48.9,30.15,SW,222,0.0,2.0,86,0.00,,---,0.00,VWS V14.01,2013-04-06 11:29:00,
2013-04-06 04:33:00,53.0,48.9,30.16,SW,222,0.0,0.0,86,0.00,,---,0.00,VWS V14.01,2013-04-06 11:33:00,
2013-04-06 04:38:00,53.0,49.2,30.13,SW,222,0.0,0.0,87,0.00,,---,0.00,VWS V14.01,2013-04-06 11:38:00,
2013-04-06 04:43:00,53.0,49.2,30.15,SW,222,0.0,2.0,87,0.00,,---,0.00,VWS V14.01,2013-04-06 11:43:00,
2013-04-06 04:48:00,53.1,49.3,30.16,SW,222,0.0,3.0,87,0.00,,---,0.00,VWS V14.01,2013-04-06 11:48:00,
2013-04-06 04:53:00,53.2,49.7,30.16,SW,222,1.0,3.0,88,0.00,,---,0.00,VWS V14.01,2013-04-06 11:53:00,
2013-04-06 04:58:00,53.2,49.7,30.16,SW,222,1.0,3.0,88,0.00,,---,0.00,VWS V14.01,2013-04-06 11:58:00,
2013-04-06 05:03:00,53.2,49.7,30.15,SW,222,0.0,2.0,88,0.00,,---,0.00,VWS V14.01,2013-04-06 12:03:00,
2013-04-06 05:08:00,53.2,49.7,30.15,SW,222,0.0,3.0,88,0.00,,---,0.00,VWS V14.01,2013-04-06 12:08:00,
2013-04-06 05:13:00,53.3,50.2,30.15,SW,222,0.0,3.0,89,0.00,,---,0.00,VWS V14.01,2013-04-06 12:13:00,
2013-04-06 05:19:00,53.3,50.2,30.16,SW,222,1.0,3.0,89,0.00,,---,0.00,VWS V14.01,2013-04-06 12:19:00,
2013-04-06 05:24:00,53.3,50.2,30.13,SW,222,1.0,3.0,89,0.00,,---,0.00,VWS V14.01,2013-04-06 12:24:00,
2013-04-06 05:29:00,53.2,50.0,30.16,SW,222,1.0,3.0,89,0.00,,---,0.00,VWS V14.01,2013-04-06 12:29:00,
2013-04-06 05:34:00,53.2,50.0,30.16,SW,222,1.0,3.0,89,0.00,,---,0.00,VWS V14.01,2013-04-06 12:34:00,
2013-04-06 05:39:00,53.0,49.8,30.17,SW,222,0.0,3.0,89,0.00,,---,0.00,VWS V14.01,2013-04-06 12:39:00,
2013-04-06 05:44:00,53.0,49.8,30.14,SW,222,0.0,3.0,89,0.00,,---,0.00,VWS V14.01,2013-04-06 12:44:00,
2013-04-06 05:50:00,53.0,49.8,30.16,SW,222,0.0,3.0,89,0.00,,---,0.00,VWS V14.01,2013-04-06 12:50:00,
2013-04-06 05:55:00,53.0,49.5,30.14,SW,222,0.0,3.0,88,0.00,,---,0.00,VWS V14.01,2013-04-06 12:55:00,
2013-04-06 06:00:00,53.0,49.5,30.16,SW,222,0.0,0.0,88,0.00,,---,0.00,VWS V14.01,2013-04-06 13:00:00,
2013-04-06 06:05:00,53.0,49.8,30.16,SW,222,1.0,1.0,89,0.00,,---,0.00,VWS V14.01,2013-04-06 13:05:00,
2013-04-06 06:10:00,53.1,50.0,30.18,SW,222,0.0,1.0,89,0.00,,---,0.00,VWS V14.01,2013-04-06 13:10:00,
2013-04-06 06:15:00,53.2,50.0,30.17,SW,222,0.0,1.0,89,0.00,,---,0.00,VWS V14.01,2013-04-06 13:15:00,
2013-04-06 06:20:00,53.2,50.0,30.14,SW,222,0.0,1.0,89,0.00,,---,0.00,VWS V14.01,2013-04-06 13:20:00,
2013-04-06 06:25:00,53.1,50.0,30.18,SW,223,0.0,1.0,89,0.00,,---,0.00,VWS V14.01,2013-04-06 13:25:00,
2013-04-06 06:30:00,53.2,49.7,30.17,SW,222,0.0,0.0,88,0.00,,---,0.00,VWS V14.01,2013-04-06 13:30:00,
2013-04-06 06:35:00,53.2,49.7,30.15,SW,222,0.0,3.0,88,0.00,,---,0.00,VWS V14.01,2013-04-06 13:35:00,
2013-04-06 06:40:00,53.2,49.7,30.15,SW,222,2.0,3.0,88,0.00,,---,0.00,VWS V14.01,2013-04-06 13:40:00,
2013-04-06 06:45:00,53.0,49.5,30.17,SW,222,1.0,3.0,88,0.00,,---,0.00,VWS V14.01,2013-04-06 13:45:00,
2013-04-06 06:50:00,53.0,49.5,30.15,SW,222,0.0,3.0,88,0.00,,---,0.00,VWS V14.01,2013-04-06 13:50:00,
2013-04-06 06:56:00,53.1,49.7,30.17,SW,222,0.0,3.0,88,0.00,,---,0.00,VWS V14.01,2013-04-06 13:56:00,
2013-04-06 07:01:00,53.0,49.5,30.19,SW,222,0.0,1.0,88,0.00,,---,0.00,VWS V14.01,2013-04-06 14:01:00,
2013-04-06 07:06:00,53.0,49.5,30.17,SW,222,1.0,2.0,88,0.00,,---,0.00,VWS V14.01,2013-04-06 14:06:00,
2013-04-06 07:12:00,53.0,49.5,30.16,SW,222,1.0,2.0,88,0.00,,---,0.00,VWS V14.01,2013-04-06 14:12:00,
2013-04-06 07:17:00,53.0,49.5,30.18,SW,222,1.0,3.0,88,0.00,,---,0.00,VWS V14.01,2013-04-06 14:17:00,
2013-04-06 07:22:00,53.1,49.3,30.17,SW,222,0.0,3.0,87,0.00,,---,0.00,VWS V14.01,2013-04-06 14:22:00,
2013-04-06 07:27:00,53.0,49.2,30.18,SW,222,2.0,3.0,87,0.00,,---,0.00,VWS V14.01,2013-04-06 14:27:00,
2013-04-06 07:32:00,53.2,49.4,30.18,SW,222,0.0,2.0,87,0.00,,---,0.00,VWS V14.01,2013-04-06 14:32:00,
2013-04-06 07:37:00,53.2,49.4,30.17,SW,222,0.0,2.0,87,0.00,,---,0.00,VWS V14.01,2013-04-06 14:37:00,
2013-04-06 07:42:00,53.3,49.5,30.19,SW,222,0.0,2.0,87,0.00,,---,0.00,VWS V14.01,2013-04-06 14:42:00,
2013-04-06 07:47:00,53.4,49.6,30.16,SW,222,0.0,2.0,87,0.00,,---,0.00,VWS V14.01,2013-04-06 14:47:00,
2013-04-06 07:52:00,53.5,49.7,30.17,SW,222,0.0,2.0,87,0.00,,---,0.00,VWS V14.01,2013-04-06 14:52:00,
2013-04-06 07:58:00,53.6,49.8,30.17,SW,222,1.0,3.0,87,0.00,,---,0.00,VWS V14.01,2013-04-06 14:58:00,
2013-04-06 08:03:00,53.6,49.8,30.16,SW,222,1.0,2.0,87,0.00,,---,0.00,VWS V14.01,2013-04-06 15:03:00,
2013-04-06 08:08:00,53.7,49.6,30.18,SW,222,2.0,3.0,86,0.00,,---,0.00,VWS V14.01,2013-04-06 15:08:00,
2013-04-06 08:13:00,53.8,49.7,30.17,SW,222,2.0,4.0,86,0.00,,---,0.00,VWS V14.01,2013-04-06 15:13:00,
2013-04-06 08:18:00,53.8,49.4,30.18,SW,222,3.0,4.0,85,0.00,,---,0.00,VWS V14.01,2013-04-06 15:18:00,
2013-04-06 08:23:00,54.2,49.8,30.19,SW,222,3.0,4.0,85,0.00,,---,0.00,VWS V14.01,2013-04-06 15:23:00,
2013-04-06 08:28:00,54.4,49.7,30.17,SW,222,2.0,4.0,84,0.00,,---,0.00,VWS V14.01,2013-04-06 15:28:00,
2013-04-06 08:34:00,54.5,49.5,30.18,SW,222,1.0,3.0,83,0.00,,---,0.00,VWS V14.01,2013-04-06 15:34:00,
2013-04-06 08:39:00,54.6,49.5,30.17,SW,222,3.0,4.0,83,0.00,,---,0.00,VWS V14.01,2013-04-06 15:39:00,
2013-04-06 08:44:00,54.7,49.7,30.19,SW,222,0.0,4.0,83,0.00,,---,0.00,VWS V14.01,2013-04-06 15:44:00,
2013-04-06 08:50:00,55.0,49.6,30.17,SW,222,3.0,4.0,82,0.00,,---,0.00,VWS V14.01,2013-04-06 15:50:00,
2013-04-06 08:55:00,55.1,49.7,30.19,SW,222,2.0,4.0,82,0.00,,---,0.00,VWS V14.01,2013-04-06 15:55:00,
2013-04-06 09:00:00,55.2,49.8,30.16,SW,222,1.0,4.0,82,0.00,,---,0.00,VWS V14.01,2013-04-06 16:00:00,
2013-04-06 09:05:00,55.4,49.7,30.20,SW,222,0.0,4.0,81,0.00,,---,0.00,VWS V14.01,2013-04-06 16:05:00,
2013-04-06 09:10:00,55.7,50.0,30.19,SW,222,2.0,4.0,81,0.00,,---,0.00,VWS V14.01,2013-04-06 16:10:00,
2013-04-06 09:15:00,55.6,49.9,30.17,SW,222,0.0,4.0,81,0.00,,---,0.00,VWS V14.01,2013-04-06 16:15:00,
2013-04-06 09:20:00,56.0,50.3,30.16,SW,222,1.0,4.0,81,0.00,,---,0.00,VWS V14.01,2013-04-06 16:20:00,
2013-04-06 09:25:00,56.1,50.7,30.18,SW,222,1.0,4.0,82,0.00,,---,0.00,VWS V14.01,2013-04-06 16:25:00,
2013-04-06 09:30:00,56.4,50.0,30.19,SW,222,1.0,2.0,79,0.00,,---,0.00,VWS V14.01,2013-04-06 16:30:00,
2013-04-06 09:35:00,56.5,50.1,30.17,SW,222,1.0,3.0,79,0.00,,---,0.00,VWS V14.01,2013-04-06 16:35:00,
2013-04-06 09:40:00,56.5,49.7,30.19,SW,222,2.0,3.0,78,0.00,,---,0.00,VWS V14.01,2013-04-06 16:40:00,
2013-04-06 09:45:00,56.7,49.9,30.16,SW,222,2.0,4.0,78,0.00,,---,0.00,VWS V14.01,2013-04-06 16:45:00,
2013-04-06 09:50:00,56.7,49.9,30.17,SW,222,1.0,4.0,78,0.00,,---,0.00,VWS V14.01,2013-04-06 16:50:00,
2013-04-06 09:55:00,56.8,50.0,30.17,SW,222,2.0,4.0,78,0.00,,---,0.00,VWS V14.01,2013-04-06 16:55:00,
2013-04-06 10:00:00,57.0,50.2,30.16,SW,222,3.0,3.0,78,0.00,,---,0.00,VWS V14.01,2013-04-06 17:00:00,
2013-04-06 10:05:00,57.1,50.3,30.16,SW,222,1.0,4.0,78,0.00,,---,0.00,VWS V14.01,2013-04-06 17:05:00,
2013-04-06 10:10:00,57.3,50.2,30.19,SW,222,1.0,4.0,77,0.00,,---,0.00,VWS V14.01,2013-04-06 17:10:00,
2013-04-06 10:16:00,57.4,49.9,30.17,SW,222,3.0,4.0,76,0.00,,---,0.00,VWS V14.01,2013-04-06 17:16:00,
2013-04-06 10:21:00,57.6,50.5,30.18,SW,222,4.0,5.0,77,0.00,,---,0.00,VWS V14.01,2013-04-06 17:21:00,
2013-04-06 10:26:00,57.7,49.8,30.17,SW,222,6.0,6.0,75,0.00,,---,0.00,VWS V14.01,2013-04-06 17:26:00,
2013-04-06 10:31:00,57.9,49.7,30.15,SW,222,3.0,3.0,74,0.00,,---,0.00,VWS V14.01,2013-04-06 17:31:00,
2013-04-06 10:36:00,57.9,50.4,30.17,SW,224,4.0,6.0,76,0.00,,---,0.00,VWS V14.01,2013-04-06 17:36:00,
2013-04-06 10:41:00,57.7,50.2,30.16,SW,224,0.0,6.0,76,0.00,,---,0.00,VWS V14.01,2013-04-06 17:41:00,
2013-04-06 10:46:00,57.9,50.4,30.17,SW,224,0.0,6.0,76,0.00,,---,0.00,VWS V14.01,2013-04-06 17:46:00,
2013-04-06 10:51:00,57.9,50.4,30.19,SW,223,1.0,6.0,76,0.00,,---,0.00,VWS V14.01,2013-04-06 17:51:00,
2013-04-06 10:56:00,57.9,50.4,30.16,SW,223,3.0,6.0,76,0.00,,---,0.00,VWS V14.01,2013-04-06 17:56:00,
2013-04-06 11:01:00,58.1,50.6,30.17,SW,223,0.0,4.0,76,0.00,,---,0.00,VWS V14.01,2013-04-06 18:01:00,
2013-04-06 11:06:00,58.0,50.8,30.18,SW,224,1.0,7.0,77,0.00,,---,0.00,VWS V14.01,2013-04-06 18:06:00,
2013-04-06 11:12:00,58.2,51.0,30.19,SW,224,0.0,7.0,77,0.00,,---,0.00,VWS V14.01,2013-04-06 18:12:00,
2013-04-06 11:17:00,58.2,50.7,30.19,SW,224,3.0,7.0,76,0.00,,---,0.00,VWS V14.01,2013-04-06 18:17:00,
2013-04-06 11:22:00,58.2,51.0,30.18,SW,224,1.0,7.0,77,0.00,,---,0.00,VWS V14.01,2013-04-06 18:22:00,
2013-04-06 11:27:00,58.2,51.0,30.20,SW,225,3.0,7.0,77,0.00,,---,0.00,VWS V14.01,2013-04-06 18:27:00,
2013-04-06 11:32:00,58.2,51.4,30.20,SW,224,4.0,5.0,78,0.00,,---,0.00,VWS V14.01,2013-04-06 18:32:00,
2013-04-06 11:37:00,58.2,51.4,30.17,SW,225,4.0,7.0,78,0.00,,---,0.00,VWS V14.01,2013-04-06 18:37:00,
2013-04-06 11:42:00,58.2,51.0,30.21,SW,222,1.0,7.0,77,0.00,,---,0.00,VWS V14.01,2013-04-06 18:42:00,
2013-04-06 11:47:00,58.4,51.2,30.20,SW,223,4.0,7.0,77,0.00,,---,0.00,VWS V14.01,2013-04-06 18:47:00,
2013-04-06 11:52:00,58.5,51.7,30.18,SW,222,3.0,8.0,78,0.00,,---,0.00,VWS V14.01,2013-04-06 18:52:00,
2013-04-06 11:57:00,58.8,52.0,30.20,SW,222,2.0,8.0,78,0.00,,---,0.00,VWS V14.01,2013-04-06 18:57:00,
2013-04-06 12:02:00,59.0,52.5,30.18,SSW,208,4.0,5.0,79,0.00,,---,0.00,VWS V14.01,2013-04-06 19:02:00,
2013-04-06 12:07:00,59.4,52.5,30.20,SW,221,2.0,7.0,78,0.00,,---,0.00,VWS V14.01,2013-04-06 19:07:00,
2013-04-06 12:12:00,59.6,52.4,30.21,WSW,243,5.0,9.0,77,0.00,,---,0.00,VWS V14.01,2013-04-06 19:12:00,
2013-04-06 12:18:00,59.8,52.6,30.18,WSW,238,8.0,10.0,77,0.00,,---,0.00,VWS V14.01,2013-04-06 19:18:00,
2013-04-06 12:23:00,59.9,53.0,30.17,SW,235,6.0,10.0,78,0.00,,---,0.00,VWS V14.01,2013-04-06 19:23:00,
2013-04-06 12:28:00,59.9,52.7,30.17,SW,231,2.0,10.0,77,0.00,,---,0.00,VWS V14.01,2013-04-06 19:28:00,
2013-04-06 12:33:00,59.9,52.7,30.17,SW,229,5.0,7.0,77,0.00,,---,0.00,VWS V14.01,2013-04-06 19:33:00,
2013-04-06 12:38:00,59.9,52.7,30.20,SW,223,6.0,8.0,77,0.00,,---,0.00,VWS V14.01,2013-04-06 19:38:00,
2013-04-06 12:43:00,60.0,53.1,30.19,SW,234,3.0,8.0,78,0.00,,---,0.00,VWS V14.01,2013-04-06 19:43:00,
2013-04-06 12:48:00,59.9,52.7,30.19,SSW,198,4.0,11.0,77,0.00,,---,0.00,VWS V14.01,2013-04-06 19:48:00,
2013-04-06 12:53:00,60.1,53.6,30.19,SW,220,4.0,11.0,79,0.00,,---,0.00,VWS V14.01,2013-04-06 19:53:00,
2013-04-06 12:59:00,60.2,53.3,30.18,West,267,2.0,11.0,78,0.00,,---,0.00,VWS V14.01,2013-04-06 19:59:00,
2013-04-06 13:04:00,60.2,53.0,30.18,SW,233,1.0,11.0,77,0.00,,---,0.00,VWS V14.01,2013-04-06 20:04:00,
2013-04-06 13:09:00,60.3,53.1,30.17,NNW,345,4.0,11.0,77,0.00,,---,0.00,VWS V14.01,2013-04-06 20:09:00,
2013-04-06 13:14:00,60.3,53.4,30.18,WNW,291,2.0,11.0,78,0.00,,---,0.00,VWS V14.01,2013-04-06 20:14:00,
2013-04-06 13:19:00,60.7,53.1,30.16,NW,314,3.0,11.0,76,0.00,,---,0.00,VWS V14.01,2013-04-06 20:19:00,
2013-04-06 13:24:00,60.9,53.3,30.17,SSW,201,2.0,11.0,76,0.00,,---,0.00,VWS V14.01,2013-04-06 20:24:00,
2013-04-06 13:30:00,61.3,53.7,30.15,SW,231,6.0,7.0,76,0.00,,---,0.00,VWS V14.01,2013-04-06 20:30:00,
2013-04-06 13:35:00,61.4,53.0,30.18,WSW,243,3.0,8.0,74,0.00,,---,0.00,VWS V14.01,2013-04-06 20:35:00,
2013-04-06 13:40:00,61.5,52.8,30.16,WSW,243,4.0,8.0,73,0.00,,---,0.00,VWS V14.01,2013-04-06 20:40:00,
2013-04-06 13:45:00,61.9,53.5,30.17,NNW,331,2.0,8.0,74,0.00,,---,0.00,VWS V14.01,2013-04-06 20:45:00,
2013-04-06 13:50:00,62.2,53.5,30.17,NNW,328,2.0,8.0,73,0.00,,---,0.00,VWS V14.01,2013-04-06 20:50:00,
2013-04-06 13:55:00,62.4,52.9,30.17,West,267,0.0,8.0,71,0.00,,---,0.00,VWS V14.01,2013-04-06 20:55:00,
2013-04-06 14:00:00,62.5,51.8,30.15,SW,219,4.0,6.0,68,0.00,,---,0.00,VWS V14.01,2013-04-06 21:00:00,
2013-04-06 14:05:00,62.6,52.7,30.15,SW,233,1.0,6.0,70,0.00,,---,0.00,VWS V14.01,2013-04-06 21:05:00,
2013-04-06 14:10:00,62.5,52.6,30.14,West,261,1.0,7.0,70,0.00,,---,0.00,VWS V14.01,2013-04-06 21:10:00,
2013-04-06 14:15:00,62.8,53.3,30.16,SW,235,5.0,9.0,71,0.00,,---,0.00,VWS V14.01,2013-04-06 21:15:00,
2013-04-06 14:20:00,63.9,54.7,30.17,West,273,4.0,9.0,72,0.00,,---,0.00,VWS V14.01,2013-04-06 21:20:00,
2013-04-06 14:25:00,64.1,52.9,30.17,NW,319,3.0,11.0,67,0.00,,---,0.00,VWS V14.01,2013-04-06 21:25:00,
2013-04-06 14:30:00,64.6,53.4,30.15,West,279,5.0,10.0,67,0.00,,---,0.00,VWS V14.01,2013-04-06 21:30:00,
2013-04-06 14:36:00,65.0,54.2,30.17,WSW,252,5.0,10.0,68,0.00,,---,0.00,VWS V14.01,2013-04-06 21:36:00,
2013-04-06 14:41:00,64.7,52.7,30.14,SW,223,5.0,10.0,65,0.00,,---,0.00,VWS V14.01,2013-04-06 21:41:00,
2013-04-06 14:46:00,63.8,52.7,30.15,SW,218,1.0,10.0,67,0.00,,---,0.00,VWS V14.01,2013-04-06 21:46:00,
2013-04-06 14:51:00,63.5,53.2,30.15,NW,306,2.0,10.0,69,0.00,,---,0.00,VWS V14.01,2013-04-06 21:51:00,
2013-04-06 14:56:00,64.0,53.2,30.16,WSW,242,3.0,10.0,68,0.00,,---,0.00,VWS V14.01,2013-04-06 21:56:00,
2013-04-06 15:01:00,64.6,54.6,30.14,WSW,256,2.0,3.0,70,0.00,,---,0.00,VWS V14.01,2013-04-06 22:01:00,
2013-04-06 15:07:00,64.8,53.6,30.15,WNW,282,2.0,7.0,67,0.00,,---,0.00,VWS V14.01,2013-04-06 22:07:00,
2013-04-06 15:12:00,65.0,53.8,30.16,NW,304,4.0,7.0,67,0.00,,---,0.00,VWS V14.01,2013-04-06 22:12:00,
2013-04-06 15:17:00,65.4,53.8,30.14,WNW,290,4.0,7.0,66,0.00,,---,0.00,VWS V14.01,2013-04-06 22:17:00,
2013-04-06 15:22:00,65.4,52.9,30.14,SW,228,5.0,7.0,64,0.00,,---,0.00,VWS V14.01,2013-04-06 22:22:00,
2013-04-06 15:27:00,65.4,53.8,30.15,SW,225,3.0,9.0,66,0.00,,---,0.00,VWS V14.01,2013-04-06 22:27:00,
2013-04-06 15:32:00,65.4,52.9,30.15,SW,225,8.0,11.0,64,0.00,,---,0.00,VWS V14.01,2013-04-06 22:32:00,
2013-04-06 15:37:00,65.0,53.0,30.13,SW,227,4.0,11.0,65,0.00,,---,0.00,VWS V14.01,2013-04-06 22:37:00,
2013-04-06 15:42:00,64.9,52.9,30.16,SW,216,5.0,11.0,65,0.00,,---,0.00,VWS V14.01,2013-04-06 22:42:00,
2013-04-06 15:47:00,65.1,53.5,30.14,SW,226,3.0,11.0,66,0.00,,---,0.00,VWS V14.01,2013-04-06 22:47:00,
2013-04-06 15:53:00,65.5,54.3,30.14,West,260,5.0,11.0,67,0.00,,---,0.00,VWS V14.01,2013-04-06 22:53:00,
2013-04-06 15:58:00,65.4,52.9,30.15,SW,233,5.0,11.0,64,0.00,,---,0.00,VWS V14.01,2013-04-06 22:58:00,
2013-04-06 16:03:00,65.7,53.6,30.15,NW,312,2.0,8.0,65,0.00,,---,0.00,VWS V14.01,2013-04-06 23:03:00,
2013-04-06 16:08:00,66.0,53.9,30.15,SW,215,3.0,9.0,65,0.00,,---,0.00,VWS V14.01,2013-04-06 23:08:00,
2013-04-06 16:13:00,66.3,53.3,30.16,WSW,239,2.0,9.0,63,0.00,,---,0.00,VWS V14.01,2013-04-06 23:13:00,
2013-04-06 16:18:00,65.7,52.8,30.13,SW,225,5.0,9.0,63,0.00,,---,0.00,VWS V14.01,2013-04-06 23:18:00,
2013-04-06 16:23:00,64.9,52.9,30.13,SW,216,4.0,9.0,65,0.00,,---,0.00,VWS V14.01,2013-04-06 23:23:00,
2013-04-06 16:28:00,64.4,52.4,30.14,SW,230,6.0,10.0,65,0.00,,---,0.00,VWS V14.01,2013-04-06 23:28:00,
2013-04-06 16:33:00,64.0,52.8,30.14,West,276,3.0,7.0,67,0.00,,---,0.00,VWS V14.01,2013-04-06 23:33:00,
2013-04-06 16:38:00,63.9,52.3,30.15,West,262,2.0,7.0,66,0.00,,---,0.00,VWS V14.01,2013-04-06 23:38:00,
2013-04-06 16:44:00,64.1,52.9,30.13,WSW,240,2.0,7.0,67,0.00,,---,0.00,VWS V14.01,2013-04-06 23:44:00,
2013-04-06 16:49:00,64.5,53.3,30.15,WSW,238,7.0,7.0,67,0.00,,---,0.00,VWS V14.01,2013-04-06 23:49:00,
2013-04-06 16:54:00,64.6,52.6,30.13,SW,227,2.0,7.0,65,0.00,,---,0.00,VWS V14.01,2013-04-06 23:54:00,
2013-04-06 16:59:00,63.7,52.1,30.12,West,263,5.0,9.0,66,0.00,,---,0.00,VWS V14.01,2013-04-06 23:59:00,
2013-04-06 17:04:00,63.2,52.1,30.12,West,266,5.0,9.0,67,0.00,,---,0.00,VWS V14.01,2013-04-07 00:04:00,
2013-04-06 17:09:00,62.5,51.4,30.13,SSW,213,4.0,9.0,67,0.00,,---,0.00,VWS V14.01,2013-04-07 00:09:00,
2013-04-06 17:14:00,62.1,51.4,30.14,SSW,212,2.0,9.0,68,0.00,,---,0.00,VWS V14.01,2013-04-07 00:14:00,
2013-04-06 17:19:00,61.9,51.6,30.14,WNW,291,2.0,9.0,69,0.00,,---,0.00,VWS V14.01,2013-04-07 00:19:00,
2013-04-06 17:25:00,61.9,52.0,30.11,WSW,256,6.0,9.0,70,0.00,,---,0.00,VWS V14.01,2013-04-07 00:25:00,
2013-04-06 17:30:00,61.9,52.0,30.12,WNW,294,3.0,5.0,70,0.00,,---,0.00,VWS V14.01,2013-04-07 00:30:00,
2013-04-06 17:35:00,61.4,51.5,30.11,NW,319,3.0,9.0,70,0.00,,---,0.00,VWS V14.01,2013-04-07 00:35:00,
2013-04-06 17:40:00,61.1,51.6,30.12,West,264,2.0,9.0,71,0.00,,---,0.00,VWS V14.01,2013-04-07 00:40:00,
2013-04-06 17:45:00,61.1,51.6,30.12,SW,228,2.0,10.0,71,0.00,,---,0.00,VWS V14.01,2013-04-07 00:45:00,
2013-04-06 17:50:00,61.0,51.2,30.11,NW,313,7.0,10.0,70,0.00,,---,0.00,VWS V14.01,2013-04-07 00:50:00,
2013-04-06 17:55:00,60.6,51.2,30.12,NW,306,5.0,10.0,71,0.00,,---,0.00,VWS V14.01,2013-04-07 00:55:00,
2013-04-06 18:00:00,60.3,50.9,30.14,WSW,248,3.0,6.0,71,0.00,,---,0.00,VWS V14.01,2013-04-07 01:00:00,
2013-04-06 18:05:00,60.0,51.0,30.11,West,277,4.0,8.0,72,0.00,,---,0.00,VWS V14.01,2013-04-07 01:05:00,
2013-04-06 18:10:00,59.9,51.2,30.14,NW,310,4.0,8.0,73,0.00,,---,0.00,VWS V14.01,2013-04-07 01:10:00,
2013-04-06 18:15:00,59.5,50.8,30.12,West,274,2.0,8.0,73,0.00,,---,0.00,VWS V14.01,2013-04-07 01:15:00,
2013-04-06 18:20:00,59.4,50.8,30.11,NNW,345,6.0,8.0,73,0.00,,---,0.00,VWS V14.01,2013-04-07 01:20:00,
2013-04-06 18:25:00,59.1,50.5,30.14,NW,317,2.0,8.0,73,0.00,,---,0.00,VWS V14.01,2013-04-07 01:25:00,
2013-04-06 18:30:00,58.8,50.5,30.13,WSW,257,2.0,3.0,74,0.00,,---,0.00,VWS V14.01,2013-04-07 01:30:00,
2013-04-06 18:35:00,58.7,50.5,30.16,NNW,344,1.0,6.0,74,0.00,,---,0.00,VWS V14.01,2013-04-07 01:35:00,
2013-04-06 18:40:00,58.6,50.3,30.12,SW,217,0.0,7.0,74,0.00,,---,0.00,VWS V14.01,2013-04-07 01:40:00,
2013-04-06 18:46:00,58.3,50.4,30.14,NW,320,0.0,7.0,75,0.00,,---,0.00,VWS V14.01,2013-04-07 01:46:00,
2013-04-06 18:51:00,58.4,50.5,30.13,NW,313,4.0,7.0,75,0.00,,---,0.00,VWS V14.01,2013-04-07 01:51:00,
2013-04-06 18:56:00,58.0,50.1,30.14,NW,306,1.0,7.0,75,0.00,,---,0.00,VWS V14.01,2013-04-07 01:56:00,
2013-04-06 19:01:00,57.9,50.4,30.13,North,355,1.0,7.0,76,0.00,,---,0.00,VWS V14.01,2013-04-07 02:01:00,
2013-04-06 19:06:00,57.5,50.4,30.12,NE,36,5.0,7.0,77,0.00,,---,0.00,VWS V14.01,2013-04-07 02:06:00,
2013-04-06 19:12:00,57.3,50.2,30.15,North,350,7.0,8.0,77,0.00,,---,0.00,VWS V14.01,2013-04-07 02:12:00,
2013-04-06 19:17:00,57.0,49.9,30.11,NNW,344,3.0,9.0,77,0.00,,---,0.00,VWS V14.01,2013-04-07 02:17:00,
2013-04-06 19:22:00,56.7,49.9,30.11,WNW,297,5.0,9.0,78,0.00,,---,0.00,VWS V14.01,2013-04-07 02:22:00,
2013-04-06 19:27:00,56.4,49.6,30.12,WNW,294,5.0,9.0,78,0.00,,---,0.00,VWS V14.01,2013-04-07 02:27:00,
2013-04-06 19:32:00,56.1,49.7,30.11,WNW,293,2.0,4.0,79,0.00,,---,0.00,VWS V14.01,2013-04-07 02:32:00,
2013-04-06 19:37:00,56.0,49.6,30.15,NW,307,2.0,8.0,79,0.00,,---,0.00,VWS V14.01,2013-04-07 02:37:00,
2013-04-06 19:42:00,55.8,49.7,30.13,WNW,300,2.0,8.0,80,0.00,,---,0.00,VWS V14.01,2013-04-07 02:42:00,
2013-04-06 19:48:00,55.6,49.5,30.12,WSW,252,0.0,8.0,80,0.00,,---,0.00,VWS V14.01,2013-04-07 02:48:00,
2013-04-06 19:53:00,55.5,49.4,30.15,West,263,4.0,8.0,80,0.00,,---,0.00,VWS V14.01,2013-04-07 02:53:00,
2013-04-06 19:58:00,55.5,49.4,30.11,North,358,2.0,8.0,80,0.00,,---,0.00,VWS V14.01,2013-04-07 02:58:00,
2013-04-06 20:03:00,55.4,49.3,30.13,WNW,290,1.0,6.0,80,0.00,,---,0.00,VWS V14.01,2013-04-07 03:03:00,
2013-04-06 20:08:00,55.2,49.2,30.14,WNW,287,2.0,6.0,80,0.00,,---,0.00,VWS V14.01,2013-04-07 03:08:00,
2013-04-06 20:13:00,55.1,49.7,30.12,NW,316,2.0,8.0,82,0.00,,---,0.00,VWS V14.01,2013-04-07 03:13:00,
2013-04-06 20:18:00,55.0,49.3,30.15,SSW,209,1.0,8.0,81,0.00,,---,0.00,VWS V14.01,2013-04-07 03:18:00,
2013-04-06 20:23:00,55.1,49.7,30.14,NW,308,2.0,8.0,82,0.00,,---,0.00,VWS V14.01,2013-04-07 03:23:00,
2013-04-06 20:28:00,54.9,49.5,30.16,NNW,339,2.0,8.0,82,0.00,,---,0.00,VWS V14.01,2013-04-07 03:28:00,
2013-04-06 20:33:00,54.7,49.3,30.17,WSW,239,4.0,7.0,82,0.00,,---,0.00,VWS V14.01,2013-04-07 03:33:00,
2013-04-06 20:38:00,54.4,49.0,30.12,WNW,299,5.0,10.0,82,0.00,,---,0.00,VWS V14.01,2013-04-07 03:38:00,
2013-04-06 20:43:00,54.4,49.3,30.13,WNW,290,1.0,10.0,83,0.00,,---,0.00,VWS V14.01,2013-04-07 03:43:00,
2013-04-06 20:48:00,54.1,49.1,30.14,West,281,3.0,10.0,83,0.00,,---,0.00,VWS V14.01,2013-04-07 03:48:00,
2013-04-06 20:53:00,54.1,48.7,30.17,WSW,240,1.0,10.0,82,0.00,,---,0.00,VWS V14.01,2013-04-07 03:53:00,
2013-04-06 20:59:00,54.0,49.0,30.15,WSW,242,5.0,10.0,83,0.00,,---,0.00,VWS V14.01,2013-04-07 03:59:00,
2013-04-06 21:00:00,54.1,49.1,30.13,WSW,242,4.0,5.0,83,0.00,,---,0.00,VWS V14.01,2013-04-07 04:00:00,
2013-04-06 21:02:00,53.9,48.9,30.17,WSW,241,5.0,6.0,83,0.00,,---,0.00,VWS V14.01,2013-04-07 04:02:00,
2013-04-06 21:03:00,53.9,48.9,30.14,WSW,241,4.0,6.0,83,0.00,,---,0.00,VWS V14.01,2013-04-07 04:03:00,
2013-04-06 21:08:00,53.8,48.4,30.13,SW,230,3.0,7.0,82,0.00,,---,0.00,VWS V14.01,2013-04-07 04:08:00,
2013-04-06 21:13:00,53.7,48.7,30.16,West,264,4.0,7.0,83,0.00,,---,0.00,VWS V14.01,2013-04-07 04:13:00,
2013-04-06 21:18:00,53.6,48.6,30.14,WSW,243,4.0,7.0,83,0.00,,---,0.00,VWS V14.01,2013-04-07 04:18:00,
2013-04-06 21:23:00,53.5,48.5,30.13,West,269,4.0,7.0,83,0.00,,---,0.00,VWS V14.01,2013-04-07 04:23:00,
2013-04-06 21:28:00,53.5,48.8,30.13,WNW,288,0.0,7.0,84,0.00,,---,0.00,VWS V14.01,2013-04-07 04:28:00,
2013-04-06 21:33:00,53.3,48.6,30.13,SW,226,0.0,7.0,84,0.00,,---,0.00,VWS V14.01,2013-04-07 04:33:00,
2013-04-06 21:38:00,53.3,48.6,30.14,SW,226,3.0,7.0,84,0.00,,---,0.00,VWS V14.01,2013-04-07 04:38:00,
2013-04-06 21:43:00,53.2,48.5,30.16,WNW,294,2.0,7.0,84,0.00,,---,0.00,VWS V14.01,2013-04-07 04:43:00,
2013-04-06 21:48:00,53.0,48.6,30.14,SW,222,4.0,7.0,85,0.00,,---,0.00,VWS V14.01,2013-04-07 04:48:00,
2013-04-06 21:54:00,52.8,48.1,30.15,SSW,212,0.0,7.0,84,0.00,,---,0.00,VWS V14.01,2013-04-07 04:54:00,
2013-04-06 21:59:00,52.7,48.3,30.17,SSW,212,2.0,7.0,85,0.00,,---,0.00,VWS V14.01,2013-04-07 04:59:00,
2013-04-06 22:04:00,52.8,48.4,30.16,WSW,258,3.0,5.0,85,0.00,,---,0.00,VWS V14.01,2013-04-07 05:04:00,
2013-04-06 22:09:00,52.6,48.5,30.15,WSW,251,1.0,6.0,86,0.00,,---,0.00,VWS V14.01,2013-04-07 05:09:00,
2013-04-06 22:14:00,52.6,48.2,30.15,WSW,251,1.0,6.0,85,0.00,,---,0.00,VWS V14.01,2013-04-07 05:14:00,
2013-04-06 22:19:00,52.5,48.1,30.15,WSW,252,3.0,6.0,85,0.00,,---,0.00,VWS V14.01,2013-04-07 05:19:00,
2013-04-06 22:24:00,52.4,48.3,30.17,WSW,253,1.0,6.0,86,0.00,,---,0.00,VWS V14.01,2013-04-07 05:24:00,
2013-04-06 22:29:00,52.5,48.1,30.17,NW,322,3.0,3.0,85,0.00,,---,0.00,VWS V14.01,2013-04-07 05:29:00,
2013-04-06 22:34:00,52.3,47.9,30.15,NNW,340,2.0,5.0,85,0.00,,---,0.00,VWS V14.01,2013-04-07 05:34:00,
2013-04-06 22:40:00,52.3,47.9,30.17,NNW,332,2.0,5.0,85,0.00,,---,0.00,VWS V14.01,2013-04-07 05:40:00,
2013-04-06 22:45:00,52.3,48.2,30.15,NW,326,1.0,7.0,86,0.00,,---,0.00,VWS V14.01,2013-04-07 05:45:00,
2013-04-06 22:50:00,52.1,47.7,30.14,NW,326,1.0,7.0,85,0.00,,---,0.00,VWS V14.01,2013-04-07 05:50:00,
2013-04-06 22:55:00,52.2,48.2,30.15,NW,326,0.0,7.0,86,0.00,,---,0.00,VWS V14.01,2013-04-07 05:55:00,
2013-04-06 23:00:00,52.1,48.0,30.19,NW,326,0.0,0.0,86,0.00,,---,0.00,VWS V14.01,2013-04-07 06:00:00,
2013-04-06 23:05:00,52.4,48.3,30.16,NW,326,0.0,1.0,86,0.00,,---,0.00,VWS V14.01,2013-04-07 06:05:00,
2013-04-06 23:10:00,52.3,48.2,30.17,NW,326,0.0,1.0,86,0.00,,---,0.00,VWS V14.01,2013-04-07 06:10:00,
2013-04-06 23:15:00,52.3,48.2,30.19,NW,326,1.0,3.0,86,0.00,,---,0.00,VWS V14.01,2013-04-07 06:15:00,
2013-04-06 23:20:00,52.3,48.2,30.18,NW,326,1.0,3.0,86,0.00,,---,0.00,VWS V14.01,2013-04-07 06:20:00,
2013-04-06 23:26:00,52.1,48.0,30.17,NW,326,0.0,3.0,86,0.00,,---,0.00,VWS V14.01,2013-04-07 06:26:00,
2013-04-06 23:31:00,52.1,48.0,30.19,North,353,1.0,5.0,86,0.00,,---,0.00,VWS V14.01,2013-04-07 06:31:00,
2013-04-06 23:36:00,52.1,48.0,30.18,North,353,3.0,5.0,86,0.00,,---,0.00,VWS V14.01,2013-04-07 06:36:00,
2013-04-06 23:41:00,52.2,48.2,30.17,North,352,5.0,5.0,86,0.00,,---,0.00,VWS V14.01,2013-04-07 06:41:00,
2013-04-06 23:47:00,52.1,47.7,30.16,NNW,346,2.0,5.0,85,0.00,,---,0.00,VWS V14.01,2013-04-07 06:47:00,
2013-04-06 23:52:00,52.1,48.0,30.18,NNW,346,0.0,5.0,86,0.00,,---,0.00,VWS V14.01,2013-04-07 06:52:00,
2013-04-06 23:57:00,52.3,48.2,30.18,NNW,346,1.0,5.0,86,0.00,,---,0.00,VWS V14.01,2013-04-07 06:57:00,